Lexington Weather

Lexington, Massachusetts, USA

44°F
4/22/2024 8:52am 
  • Lexington Conditions: Clear
  • Temperature: 43.7°F / 6.5°CWarmer 3.8°F than last hour.
  • Dew Point: 27.7°FDecreased 1.1°Fsince last hour.
  • Relative Humidity: 53%Decreased 11.0% since last hour.
  • Wind: Calm, 10-min avg: Calm, gust: None
  • Barometer: 29.96 in Steady
  • Visibility: 10 miles
  • Rain Today: 0.00 in
  •   

Regional Weather Roundup
for Boston, MA

        
000
ASUS41 KBOX 180010
RWRBOX

REGIONAL WEATHER ROUNDUP
NATIONAL WEATHER SERVICE BOSTON/NORTON MA
800 PM EDT WED APR 17 2024

NOTE:  "FAIR" INDICATES FEW OR NO CLOUDS BELOW 12,000 FEET WITH NO 
SIGNIFICANT WEATHER AND/OR OBSTRUCTIONS TO VISIBILITY.

MAZALL-180100-
EASTERN MASSACHUSETTS
  
CITY           SKY/WX    TMP DP  RH WIND       PRES   REMARKS
BOSTON         CLOUDY    48  39  71 SE14      30.14R                  
6HR MIN TEMP:  47; 6HR MAX TEMP:  50;                                

BEVERLY        FAIR      43  37  79 SE12      30.14R                  
LAWRENCE       FAIR      46  35  65 VRB5      30.15R                  
BEDFORD        FAIR      48  37  65 E7        30.12R                  
NORWOOD        CLOUDY    52  37  56 S7        30.13R                  
MARSHFIELD     CLOUDY    46  37  71 SE9G15    30.15R                  
PLYMOUTH       MOCLDY    47  35  63 S3        30.14R                  
TAUNTON        CLOUDY    50  38  63 SE5       30.14R                  
NEW BEDFORD    CLOUDY    48  37  65 SE8       30.13S                  
$$

MAZALL-180100-
CAPE COD AND THE ISLANDS
  
CITY           SKY/WX    TMP DP  RH WIND       PRES   REMARKS
FALMOUTH       CLOUDY    45  36  70 SE7       30.15R                  
HYANNIS        MOCLDY    44  35  70 SE7       30.13F                  
CHATHAM        MOCLDY    44  36  73 E6        30.16S                  
PROVINCETOWN   FAIR      44  36  73 SE8       30.17R                  
NANTUCKET      CLOUDY    44  37  76 SE12      30.15F                  
MARTHAS VNYRD  CLOUDY    46  39  76 SE8       30.14S                  
$$
 
MAZALL-180100-
CENTRAL AND WESTERN MASSACHUSETTS
  
CITY           SKY/WX    TMP DP  RH WIND       PRES   REMARKS
WORCESTER      CLOUDY    50  30  46 S10       30.09R                  
6HR MIN TEMP:  50; 6HR MAX TEMP:  63;                                

FITCHBURG      MOCLDY    52  35  52 E6        30.10R                  
ORANGE         CLOUDY    55  34  45 SE8       30.08R                  
SPRINGFIELD    NOT AVBL                                               
WESTFIELD      CLOUDY    52  33  48 S14       30.09R                  
NORTH ADAMS    CLOUDY    61  36  39 E7        30.02S                  
PITTSFIELD     LGT RAIN  49  40  71 S10       30.04R                  
$$
 
RIZALL-180100-
RHODE ISLAND
  
CITY           SKY/WX    TMP DP  RH WIND       PRES   REMARKS
PROVIDENCE     CLOUDY    47  36  65 S7        30.14R                  
6HR MIN TEMP:  47; 6HR MAX TEMP:  56;                                

NEWPORT        CLOUDY    44  37  76 SE9       30.13R                  
BLOCK ISLAND   LGT RAIN  43  38  82 SE10      30.14R                  
SMITHFIELD     CLOUDY    46  33  60 VRB6      30.13R                  
WESTERLY       LGT RAIN  45  39  79 SE10      30.14R                  
$$
 
CTZALL-180100-
CONNECTICUT
  
CITY           SKY/WX    TMP DP  RH WIND       PRES   REMARKS
BRADLEY INTL   LGT RAIN  50  38  63 S9        30.10R                  
6HR MIN TEMP:  50; 6HR MAX TEMP:  64; 6HR PCP: TRACE;                

HARTFORD       LGT RAIN  48  41  76 S8        30.12R                  
PLAINVILLE     LGT RAIN  47  44  86 E5        30.10R                  
BRIDGEPORT     LGT RAIN  48  44  86 E9        30.11R                  
DANBURY        LGT RAIN  48  43  82 VRB5      30.11R                  
GROTON         LGT RAIN  46  41  82 SE12      30.14R                  
NEW HAVEN      LGT RAIN  48  44  86 SE6G16    30.11S                  
CHESTER        LGT RAIN  45  43  93 VRB5      30.12R                  
MERIDEN        LGT RAIN  47  40  76 SE5       30.11R                  
WILLIMANTIC    CLOUDY    48  33  56 S5        30.13R                  
OXFORD         LGT RAIN  44  42  93 SE7       30.10R                  
$$

MEZ002-015-021-024-NHZ003-005-008-011-012-014-VTZ005-008-180100-
NORTHERN NEW ENGLAND
  
CITY           SKY/WX    TMP DP  RH WIND       PRES   REMARKS
PORTLAND ME    FAIR      43  35  73 S8        30.15R                  
6HR MIN TEMP:  43; 6HR MAX TEMP:  51;                                

BANGOR ME      FAIR      48  27  44 N10       30.16R                  
CONCORD NH     FAIR      46  35  65 E8        30.11R                  
MANCHESTER NH  CLOUDY    50  34  54 VRB6      30.11R                  
NASHUA NH      FAIR      51  35  54 SE8       30.13R                  
PORTSMOUTH NH  CLOUDY    44  33  65 SE8       30.15R                  
JAFFREY NH     FAIR      53  35  50 VRB3      30.08R                  
KEENE NH       MOCLDY    56  39  53 E3        30.06R                  
BURLINGTON VT  CLOUDY    48  32  53 N7        30.08F                  
MT. WASHINGTON MOCLDY    27  19  74 SE5         N/A  WCI  21          
$$

NYZ052-076-180100-
EASTERN NEW YORK
  
CITY           SKY/WX    TMP DP  RH WIND       PRES   REMARKS
ALBANY         LGT RAIN  55  45  68 S12       30.04R                  
6HR MIN TEMP:  55; 6HR MAX TEMP:  65; 6HR PCP: TRACE;                

NEW YORK CITY  CLOUDY    50  44  80 NE13      30.05F                  
6HR MIN TEMP:  50; 6HR MAX TEMP:  57; 6HR PCP:  0.03;                

$$
 
ANZALL-180100-
MARINE OBSERVATIONS
  
STATION/POSITION TIME  TEMP    WIND        PRES    VSBY  WAVE
                       AIR SEA DIR/SP/G                  HT/PER
                 (UTC) (F)     (DEG/KT/KT) (MB)    (MI)  (FT/S)
BOSTON BUOY      2350   44     120/ 12/ 16 1020.7R         3/ 3
BUZZARDS BAY     2300   44     130/ 12/ 12 1020.8F
NANTUCKET SOUND  2350   45 48  110/ 12/ 14 1020.4S         1/ 3
MASS BAY-STELLWA 2204   44 46  130/ 16/ 17 1020.8R  1 7/8  2/ 3
ISLE OF SHOALS   2300   43     160/ 16/ 17 1020.5R
S OF BLOCK IS    2356      45                N/A           3/ 8
$$

......................KEY.........................
  SKY/WX - SKY CONDITION/PRESENT WEATHER
  TMP    - TEMPERATURE IN FAHRENHEIT
  DWPT   - DEWPOINT IN FAHRENHEIT
  RH     - RELATIVE HUMIDITY IN PERCENT
  WIND   - DIRECTION AND SPEED IN MPH
  PRES   - MEAN SEA LEVEL PRESSURE IN INCHES OF HG
  WCI    - WIND CHILL INDEX
  VSB    - VISIBILITY IN MILES
  HX     - HEAT INDEX
  TC     - TEMPERATURE IN CELSIUS
  VRB    - VARIABLE WIND DIRECTION
  N/A    - NOT AVAILABLE
  
      

Other recent Regional Weather Roundups

Mon Apr 22, 8:10am EDT

Mon Apr 22, 7:10am EDT

Mon Apr 22, 6:10am EDT

Mon Apr 22, 5:10am EDT

Mon Apr 22, 4:10am EDT

Mon Apr 22, 3:10am EDT

Mon Apr 22, 2:10am EDT

Mon Apr 22, 1:10am EDT

Mon Apr 22, 12:10am EDT

Sun Apr 21, 11:10pm EDT

Sun Apr 21, 10:10pm EDT

Sun Apr 21, 9:10pm EDT

Sun Apr 21, 8:10pm EDT

Sun Apr 21, 7:10pm EDT

Sun Apr 21, 6:10pm EDT

Sun Apr 21, 5:10pm EDT

Sun Apr 21, 4:10pm EDT

Sun Apr 21, 3:10pm EDT

Sun Apr 21, 2:10pm EDT

Sun Apr 21, 1:10pm EDT

Sun Apr 21, 12:10pm EDT

Sun Apr 21, 11:10am EDT

Sun Apr 21, 10:10am EDT

Sun Apr 21, 9:10am EDT

Sun Apr 21, 8:10am EDT

Sun Apr 21, 7:10am EDT

Sun Apr 21, 6:10am EDT

Sun Apr 21, 5:10am EDT

Sun Apr 21, 4:10am EDT

Sun Apr 21, 3:10am EDT

Sun Apr 21, 2:10am EDT

Sun Apr 21, 1:10am EDT

Sun Apr 21, 12:10am EDT

Sat Apr 20, 11:10pm EDT

Sat Apr 20, 10:10pm EDT

Sat Apr 20, 9:10pm EDT

Sat Apr 20, 8:10pm EDT

Sat Apr 20, 7:10pm EDT

Sat Apr 20, 6:10pm EDT

Sat Apr 20, 5:10pm EDT

Sat Apr 20, 4:10pm EDT

Sat Apr 20, 3:10pm EDT

Sat Apr 20, 2:10pm EDT

Sat Apr 20, 1:10pm EDT

Sat Apr 20, 12:10pm EDT

Sat Apr 20, 11:10am EDT

Sat Apr 20, 10:10am EDT

Sat Apr 20, 9:10am EDT

Sat Apr 20, 8:10am EDT

Sat Apr 20, 7:10am EDT

Sat Apr 20, 6:10am EDT

Sat Apr 20, 5:10am EDT

Sat Apr 20, 4:10am EDT

Sat Apr 20, 3:10am EDT

Sat Apr 20, 2:10am EDT

Sat Apr 20, 1:10am EDT

Sat Apr 20, 12:10am EDT

Fri Apr 19, 11:10pm EDT

Fri Apr 19, 10:10pm EDT

Fri Apr 19, 9:10pm EDT

Fri Apr 19, 8:10pm EDT

Fri Apr 19, 7:10pm EDT

Fri Apr 19, 6:10pm EDT

Fri Apr 19, 5:10pm EDT

Fri Apr 19, 4:10pm EDT

Fri Apr 19, 3:10pm EDT

Fri Apr 19, 2:10pm EDT

Fri Apr 19, 1:10pm EDT

Fri Apr 19, 12:10pm EDT

Fri Apr 19, 11:10am EDT

Fri Apr 19, 10:10am EDT

Fri Apr 19, 9:10am EDT

Fri Apr 19, 8:10am EDT

Fri Apr 19, 7:10am EDT

Fri Apr 19, 6:10am EDT

Fri Apr 19, 5:10am EDT

Fri Apr 19, 4:10am EDT

Fri Apr 19, 3:10am EDT

Fri Apr 19, 2:10am EDT

Fri Apr 19, 1:10am EDT

Fri Apr 19, 12:10am EDT

Thu Apr 18, 11:10pm EDT

Thu Apr 18, 10:10pm EDT

Thu Apr 18, 9:10pm EDT

Thu Apr 18, 8:10pm EDT

Thu Apr 18, 7:10pm EDT

Thu Apr 18, 6:10pm EDT

Thu Apr 18, 5:10pm EDT

Thu Apr 18, 4:10pm EDT

Thu Apr 18, 3:10pm EDT

Thu Apr 18, 2:10pm EDT

Thu Apr 18, 1:10pm EDT

Thu Apr 18, 12:10pm EDT

Thu Apr 18, 11:10am EDT

Thu Apr 18, 10:10am EDT

Thu Apr 18, 9:10am EDT

Thu Apr 18, 8:10am EDT

Thu Apr 18, 7:10am EDT

Thu Apr 18, 6:10am EDT

Thu Apr 18, 5:10am EDT

Thu Apr 18, 4:10am EDT

Thu Apr 18, 3:10am EDT

Thu Apr 18, 2:10am EDT

Thu Apr 18, 1:10am EDT

Thu Apr 18, 12:10am EDT

Wed Apr 17, 11:10pm EDT

Wed Apr 17, 10:10pm EDT

Wed Apr 17, 9:10pm EDT

Wed Apr 17, 7:10pm EDT

Wed Apr 17, 6:10pm EDT

Wed Apr 17, 5:10pm EDT

Wed Apr 17, 4:10pm EDT

Wed Apr 17, 3:10pm EDT

Wed Apr 17, 2:10pm EDT

Wed Apr 17, 1:10pm EDT

Wed Apr 17, 12:10pm EDT

Wed Apr 17, 11:10am EDT

Wed Apr 17, 10:10am EDT

Wed Apr 17, 9:10am EDT

Wed Apr 17, 8:10am EDT

Wed Apr 17, 7:10am EDT

Wed Apr 17, 6:10am EDT

Wed Apr 17, 5:10am EDT

Wed Apr 17, 4:10am EDT

Wed Apr 17, 3:10am EDT

Wed Apr 17, 2:10am EDT

Wed Apr 17, 1:10am EDT

Wed Apr 17, 12:10am EDT

Tue Apr 16, 11:10pm EDT

Tue Apr 16, 10:10pm EDT

Tue Apr 16, 9:10pm EDT

Tue Apr 16, 8:10pm EDT

Tue Apr 16, 7:10pm EDT

Tue Apr 16, 6:10pm EDT

Tue Apr 16, 5:10pm EDT

Tue Apr 16, 4:10pm EDT

Tue Apr 16, 3:10pm EDT

Tue Apr 16, 2:10pm EDT

Tue Apr 16, 1:10pm EDT

Tue Apr 16, 12:10pm EDT

Tue Apr 16, 11:10am EDT

Tue Apr 16, 10:10am EDT

Tue Apr 16, 9:10am EDT

Tue Apr 16, 8:10am EDT

Tue Apr 16, 7:10am EDT

Tue Apr 16, 6:10am EDT

Tue Apr 16, 5:10am EDT

Tue Apr 16, 4:10am EDT

Tue Apr 16, 3:10am EDT

Tue Apr 16, 2:10am EDT

Tue Apr 16, 1:10am EDT

Tue Apr 16, 12:10am EDT

Mon Apr 15, 11:10pm EDT

Mon Apr 15, 10:10pm EDT

Mon Apr 15, 9:10pm EDT

Mon Apr 15, 8:10pm EDT

Mon Apr 15, 7:10pm EDT

Mon Apr 15, 6:10pm EDT

Mon Apr 15, 5:10pm EDT

Mon Apr 15, 4:10pm EDT

Mon Apr 15, 3:10pm EDT

Mon Apr 15, 2:10pm EDT

Mon Apr 15, 1:10pm EDT

Mon Apr 15, 12:10pm EDT

Mon Apr 15, 11:10am EDT

Mon Apr 15, 10:10am EDT

Mon Apr 15, 9:10am EDT